User: anonymous   Login
Location: Theydon Bois
(51.6750°N, 0.1050°E)
Time: 23:02:26
(UTC+00:00)
Language:

Cosmos 2360 Rocket - Orbit

View from above orbital plane
View from above orbital plane
View from above satellite
View from above satellite

Ground track
Ground track

The orbit data is extracted from the following two-line orbital elements,

1 25407U 98045B   17344.57475289 -.00000172 +00000-0 -63375-4 0  9990
2 25407 071.0127 030.7590 0010148 291.6780 068.3262 14.15771635001153
Epoch (UTC): 10 December 2017 13:47:38
Eccentricity: 0.0010148
inclination: 71.0127°
perigee height: 832 km
apogee height: 847 km
right ascension of ascending node: 30.7590°
argument of perigee: 291.6780°
revolutions per day: 14.15771635
mean anomaly at epoch: 68.3262°
orbit number at epoch: 115

The dashed part of the orbit path shows where the satellite is in the earth's shadow,  

DLR